Farmington, NM

9:37 AM MDT on July 26, 2017 (GMT -0600)
Four Corners Regional

Weather History for KFMN - September, 2013

Change the Weather History Date:

Thursday, September 12, 2013

  Actual Average Record
Temperature  
Mean Temperature 68 °F -  
Max Temperature 78 °F 80 °F 91 °F (1990)
Min Temperature 57 °F 50 °F 37 °F (1985)
Cooling Degree Days 2    
Growing Degree Days 18 (Base 50)    
Moisture  
Dew Point 56 °F    
Average Humidity 75    
Maximum Humidity 90    
Minimum Humidity 41    
Precipitation  
Precipitation 0.75 in - - ()
Sea Level Pressure  
Sea Level Pressure 30.03 in    
Wind  
Wind Speed 8 mph (ENE)    
Max Wind Speed 21 mph    
Max Gust Speed 31 mph    
Visibility 9 miles    
Events Rain , Thunderstorm    
Averages and records for this station are not official NWS values.
T = Trace of Precipitation, MM = Missing Value Source: NWS Daily Summary

Daily Weather History Graph

Daily Weather History Graph

Search for Another Location

Airport or City:

Trip Planner

Search our weather history database for the weather conditions in past years. The results will help you decide how hot, cold, wet, or windy it might be!

Date:

Astronomy

Sep. 12, 2013 Rise Set
Actual Time 6:53 AM MDT 7:24 PM MDT
Civil Twilight 6:26 AM MDT 7:50 PM MDT
Nautical Twilight 5:56 AM MDT 8:20 PM MDT
Astronomical Twilight 5:25 AM MDT 8:52 PM MDT
Moon 2:13 PM MDT (9/12) No Moon Set
Length of Visible Light 13h 23m
Length of Day
12h 31m
Waxing Crescent, 51% of the Moon is Illuminated
Sep 12
Waxing Crescent
Sep 19
Full
Sep 26
Last Quarter
Oct 4
New
Oct 11
First Quarter

Hourly Weather History & Observations

Time (MDT) Temp. Dew Point Humidity Pressure Visibility Wind Dir Wind Speed Gust Speed Precip Events Conditions
12:53 AM 62.1 °F 53.1 °F 72% 30.02 in 10.0 mi East 8.1 mph - N/A   Mostly Cloudy
1:53 AM 63.0 °F 53.1 °F 70% 30.01 in 10.0 mi SE 6.9 mph - N/A   Mostly Cloudy
2:53 AM 61.0 °F 54.0 °F 78% 30.00 in 10.0 mi NNE 6.9 mph - 0.01 in Rain Light Rain
3:53 AM 62.1 °F 52.0 °F 70% 30.00 in 10.0 mi Calm Calm - 0.00 in   Mostly Cloudy
4:53 AM 60.1 °F 53.1 °F 78% 30.01 in 10.0 mi East 5.8 mph - N/A   Clear
5:53 AM 57.9 °F 52.0 °F 81% 30.03 in 10.0 mi East 4.6 mph - N/A   Partly Cloudy
6:53 AM 57.9 °F 51.1 °F 78% 30.04 in 10.0 mi East 6.9 mph - N/A   Partly Cloudy
7:53 AM 59.0 °F 53.1 °F 81% 30.07 in 10.0 mi East 9.2 mph - N/A   Clear
8:53 AM 62.1 °F 55.0 °F 78% 30.09 in 10.0 mi East 3.5 mph - 0.00 in   Mostly Cloudy
9:53 AM 66.0 °F 55.0 °F 68% 30.09 in 10.0 mi ENE 3.5 mph - N/A   Clear
10:53 AM 70.0 °F 55.9 °F 61% 30.07 in 10.0 mi ENE 5.8 mph - N/A   Clear
11:53 AM 73.9 °F 55.0 °F 52% 30.05 in 10.0 mi SSE 6.9 mph - N/A   Mostly Cloudy
12:53 PM 64.9 °F 59.0 °F 81% 30.04 in 3.0 mi NNE 5.8 mph - 0.18 in Rain Heavy Rain
1:53 PM 68.0 °F 59.0 °F 73% 30.01 in 10.0 mi NNW 9.2 mph - 0.03 in   Overcast
2:53 PM 73.0 °F 57.9 °F 59% 29.98 in 10.0 mi NNE 9.2 mph - N/A   Scattered Clouds
3:53 PM 73.9 °F 57.0 °F 55% 29.95 in 10.0 mi NE 9.2 mph - N/A   Mostly Cloudy
4:53 PM 68.0 °F 57.9 °F 70% 29.97 in 10.0 mi ESE 20.7 mph 31.1 mph N/A   Overcast
5:53 PM 66.0 °F 59.0 °F 78% 29.97 in 10.0 mi East 13.8 mph - 0.00 in   Mostly Cloudy
6:53 PM 64.9 °F 57.0 °F 75% 29.97 in 10.0 mi ENE 10.4 mph - N/A   Overcast
7:33 PM 64.4 °F 57.2 °F 77% 30.12 in 10.0 mi Variable 3.5 mph - N/A Thunderstorm Overcast
7:53 PM 62.1 °F 57.0 °F 84% 30.02 in 4.0 mi West 9.2 mph - 0.11 in Rain , Thunderstorm Light Rain
8:30 PM 60.8 °F 57.2 °F 88% 30.14 in 4.0 mi NW 9.2 mph - 0.12 in Rain , Thunderstorm Heavy Rain
8:53 PM 60.1 °F 57.0 °F 90% 30.02 in 5.0 mi NW 12.7 mph - 0.23 in Rain , Thunderstorm Heavy Thunderstorms and Rain
9:21 PM 60.8 °F 57.2 °F 88% 30.15 in 2.0 mi East 11.5 mph - 0.22 in Rain , Thunderstorm Heavy Thunderstorms and Rain
9:32 PM 60.8 °F 57.2 °F 88% 30.14 in 5.0 mi ENE 12.7 mph 18.4 mph 0.30 in Rain , Thunderstorm Thunderstorms and Rain
9:53 PM 60.1 °F 57.0 °F 90% 30.01 in 10.0 mi ENE 15.0 mph 24.2 mph 0.33 in Rain , Thunderstorm Light Thunderstorms and Rain
10:06 PM 60.8 °F 57.2 °F 88% 30.14 in 7.0 mi ENE 12.7 mph - 0.03 in Rain Rain
10:53 PM 59.0 °F 55.0 °F 87% 29.99 in 10.0 mi ESE 5.8 mph - 0.07 in   Overcast
11:53 PM 57.9 °F 55.0 °F 90% 30.00 in 10.0 mi ESE 9.2 mph - N/A   Mostly Cloudy